Location: Del Amo
(33.8464°N, 118.2104°W)
Time: 16:26:05
(UTC+00:00)

Tiros 1 despin weight - Pass Details

Date: 16 September 2024
Orbit: 573 x 615 km, 48.2° (Epoch: 04 October)

Event Time Altitude Azimuth Distance (km) Brightness Sun altitude
Exits shadow 10:22:44 12° 44° (NE) 1,818 ? -38.6°
Drops below altitude 10° 10:23:09 10° 45° (NE) 1,979 ? -38.5°
Sets 10:25:31 0° 50° (NE) 2,889 ? -38.1°
